Location: Brabourne
(51.1333°N, 1.0000°E)
Time: 20:19:56
(UTC+00:00)

Cosmos 1825 Rocket - Pass Details

Date: 26 October 2021
Orbit: 604 x 631 km, 82.5° (Epoch: 03 December)

Event Time Altitude Azimuth Distance (km) Brightness Sun altitude
Rises 20:17:57 0° 332° (NNW) 2,875 7.7 -34.1°
Reaches altitude 10° 20:21:24 10° 303° (WNW) 1,961 6.9 -34.6°
Maximum altitude 20:23:10 12° 279° (W) 1,805 6.6 -34.9°
Drops below altitude 10° 20:24:56 10° 255° (WSW) 1,953 6.6 -35.1°
Enters shadow 20:26:23 - 239° (WSW) 2,265 6.8 -35.3°
